loading
|

STARLINK-32185, 60341

Orbit data source: Space-Track

STARLINK-32185, 60341 is a payload satellite owned by SpaceX/Seattle (US) in LEO that was launched on Fri, 02 Aug 2024 UTC via an FALCON 9 launch vehicle from the Air Force Eastern Test Range (AFETR). Payloads include a variety of satellites, spacecraft, and rockets equipped with specific instruments for various scientific and technological missions. These include communications satellites like Starlink; space stations such as the ISS; scientific satellites like the Hubble; Earth observation satellites from companies like Planet Labs, Umbra, and HawkEye 360; GPS; miniature CubeSats for education and research; and military/defense satellites.

Loading next visibility...
Loading greatness...
STARLINK-32185 details
Identifier
60341, 2024-136N
Orbit
LEO
Last TLE update7 hours ago
Origin
Flag of USSpaceX/Seattle (US)
ManufacturerSpaceX/Seattle
Mission statusOperational
MissionUnknown
Bus & MotorSTARLINK V2M, Unknown motor
Mass750 kg wet, ~700 kg dry
Launch date (UTC)
2024-08-02 (2 months ago)
Launch vehicle
FALCON 9
Launch site
Air Force Eastern Test Range (AFETR)
Object type
Payload
Rocket body
Debris
Radar Cross SectionLarge (>1 m²)

Expand to show TLE details & history

TLE from 7 hours ago
0 STARLINK-32185
1 60341U 24136N   24261.59021097 -.00055270  00000-0 -13879-2 0  9999
2 60341  53.1624  55.4633 0001060  49.6928 310.4169 15.39486439  7270
Epoch: 2024-09-17T14:09Z
Definitive object data (Epoch: 2024-09-17T14:09:54.227Z)
Latitude-0.00007°
Longitude-154.01538°
Altitude448.061 km
Speed7.645 km/s
True Right ascension03h 41m 51s
True Declination0° 00' 00"
Sunlit
Object was in full shadow at TLE epoch
Predictive object data (real-time)
Latitude5.44533°
Longitude20.54179°
Altitude448.47 km
Speed7.645 km/s
Apparent Right ascension17h 52m 03s
Apparent Declination-50° 40' 46"
Sunlit
Object is in daylight
Predictive observer data (real-time)
Local Sidereal Time13:57:27
Azimuth146.086° SSE
Elevation-14.096°
Doppler factor1
Orbital elements
Apogee448.608 km
Perigee447.16 km
Semi-major axis6,826.021 km
Eccentricity0.000106
Inclination53.1624°
RAAN55.4633°
Arg. of periapsis49.6928°
True anomaly310.40765°
Mean anomaly310.4169°
Eccentric anomaly310.41228°
Mean motion3.8485 °/min
BSTAR-0.0013879
Period93.54 mins
No data available

STARLINK-32185 Visibility forecast

Observer location: 39.9160978°, -105.1181434

STARLINK-32185 is not visible in the next 10 days
Span
Click to sort rows by Start time (UTC) header in descending order
Start Az.
Max El. time (UTC)
Max El. Az.
Max El.
End time (UTC)
End Az.